Weather History for Oxford, NC

Change the Weather History Date:

Sunday, May 11, 2014

  Actual Average (KTDF) Record (KTDF)
Temperature  
Mean Temperature 70 °F -  
Max Temperature 81 °F 75 °F 89 °F (1963)
Min Temperature 59 °F 50 °F 33 °F (1966)
Cooling Degree Days 5    
Growing Degree Days 20 (Base 50)    
Moisture  
Dew Point 57 °F    
Average Humidity 69    
Maximum Humidity 96    
Minimum Humidity 36    
Precipitation  
Precipitation 0.01 in - - ()
Sea Level Pressure  
Sea Level Pressure 30.12 in    
Wind  
Wind Speed 3 mph (West)    
Max Wind Speed 8 mph    
Max Gust Speed -    
Visibility 10 miles    
Events      
Averages and records for this station are not official NWS values.
T = Trace of Precipitation, MM = Missing Value Source: NWS Daily Summary

Daily Weather History Graph

Daily Weather History Graph

Search for Another Location

Airport:

Trip Planner

Search our weather history database for the weather conditions in past years. The results will help you decide how hot, cold, wet, or windy it might be!

Date:

Astronomy

May. 11, 2014 Rise Set
Actual Time 6:10 AM EDT 8:10 PM EDT
Civil Twilight 5:42 AM EDT 8:38 PM EDT
Nautical Twilight 5:08 AM EDT 9:13 PM EDT
Astronomical Twilight 4:31 AM EDT 9:50 PM EDT
Moon 5:09 PM EDT (5/11) 4:08 AM EDT (5/11)
Length of Visible Light 14h 56m
Length of Day
13h 59m
Waxing Gibbous, 89% of the Moon is Illuminated
May 11
Waxing Gibbous
May 14
Full
May 21
Last Quarter
May 28
New
Jun 5
First Quarter

Hourly Weather History & Observations

Time (EDT) Temp. Heat Index Dew Point Humidity Pressure Visibility Wind Dir Wind Speed Gust Speed Precip Events Conditions
12:15 AM 61.7 °F - 59.0 °F 91% 30.06 in 10.0 mi SSW 4.6 mph - N/A   Scattered Clouds
12:35 AM 61.5 °F - 58.8 °F 91% 30.06 in 10.0 mi SW 3.5 mph - N/A   Scattered Clouds
12:55 AM 61.0 °F - 58.3 °F 91% 30.06 in 10.0 mi SSW 4.6 mph - N/A   Scattered Clouds
1:15 AM 60.3 °F - 58.1 °F 93% 30.06 in 10.0 mi SW 3.5 mph - N/A   Clear
1:35 AM 60.8 °F - 57.9 °F 90% 30.06 in 10.0 mi SW 3.5 mph - N/A   Clear
1:55 AM 59.9 °F - 57.9 °F 93% 30.06 in 10.0 mi SSW 4.6 mph - N/A   Clear
2:15 AM 59.9 °F - 58.1 °F 94% 30.06 in 10.0 mi Calm Calm - N/A   Clear
2:35 AM 59.4 °F - 57.6 °F 94% 30.06 in 5.0 mi Calm Calm - N/A   Clear
2:55 AM 59.4 °F - 57.7 °F 94% 30.06 in 7.0 mi Calm Calm - N/A   Clear
3:15 AM 59.5 °F - 58.1 °F 95% 30.06 in 7.0 mi Calm Calm - N/A   Clear
3:35 AM 59.0 °F - 57.6 °F 95% 30.06 in 7.0 mi South 3.5 mph - N/A   Scattered Clouds
3:55 AM 59.0 °F - 57.6 °F 95% 30.06 in 10.0 mi SSW 5.8 mph - N/A   Scattered Clouds
4:15 AM 59.4 °F - 58.1 °F 96% 30.06 in 10.0 mi SW 4.6 mph - N/A   Scattered Clouds
4:35 AM 59.9 °F - 58.1 °F 94% 30.06 in 10.0 mi SW 3.5 mph - N/A   Scattered Clouds
5:15 AM 59.5 °F - 57.0 °F 91% 30.07 in 10.0 mi SSW 4.6 mph - N/A   Clear
5:35 AM 59.0 °F - 57.2 °F 94% 30.07 in 10.0 mi SSW 6.9 mph - N/A   Clear
5:55 AM 59.5 °F - 57.6 °F 93% 30.07 in 10.0 mi SW 5.8 mph - N/A   Clear
6:15 AM 59.9 °F - 57.6 °F 92% 30.08 in 10.0 mi SW 4.6 mph - N/A   Clear
6:35 AM 59.7 °F - 57.4 °F 92% 30.09 in 7.0 mi SSW 5.8 mph - N/A   Clear
6:55 AM 60.1 °F - 58.1 °F 93% 30.10 in 7.0 mi SW 4.6 mph - N/A   Clear
7:15 AM 61.0 °F - 58.6 °F 92% 30.11 in 10.0 mi SW 4.6 mph - N/A   Clear
7:35 AM 63.0 °F - 59.9 °F 90% 30.11 in 10.0 mi SW 5.8 mph - N/A   Clear
7:55 AM 64.6 °F - 61.0 °F 88% 30.12 in 10.0 mi WSW 4.6 mph - N/A   Clear
8:15 AM 65.7 °F - 61.3 °F 86% 30.13 in 10.0 mi WSW 4.6 mph - N/A   Clear
8:35 AM 67.3 °F - 61.9 °F 83% 30.13 in 10.0 mi Calm Calm - N/A   Clear
8:55 AM 68.9 °F - 61.9 °F 78% 30.14 in 10.0 mi WNW 5.8 mph - N/A   Clear
9:15 AM 70.0 °F - 62.4 °F 77% 30.14 in 10.0 mi NNW 4.6 mph - N/A   Clear
9:35 AM 71.1 °F - 61.3 °F 71% 30.15 in 10.0 mi North 8.1 mph - N/A   Clear
9:55 AM 71.6 °F - 61.7 °F 71% 30.16 in 10.0 mi NNW 4.6 mph - N/A   Clear
10:15 AM 72.0 °F - 61.5 °F 70% 30.16 in 10.0 mi NNW 5.8 mph - N/A   Clear
10:35 AM 72.7 °F - 61.2 °F 67% 30.16 in 10.0 mi North 6.9 mph - N/A   Clear
10:55 AM 73.4 °F - 60.4 °F 64% 30.17 in 10.0 mi North 6.9 mph - N/A   Clear
11:15 AM 74.5 °F - 61.5 °F 64% 30.17 in 10.0 mi North 5.8 mph - N/A   Clear
11:35 AM 75.6 °F - 60.6 °F 60% 30.17 in 10.0 mi NW 3.5 mph - N/A   Clear
11:55 AM 75.9 °F - 59.0 °F 56% 30.17 in 10.0 mi NNW 5.8 mph - N/A   Clear
12:15 PM 76.5 °F - 57.7 °F 52% 30.17 in 10.0 mi NNE 4.6 mph - N/A   Clear
12:35 PM 77.0 °F - 57.9 °F 52% 30.16 in 10.0 mi NNE 3.5 mph - N/A   Clear
12:55 PM 77.9 °F - 57.0 °F 48% 30.16 in 10.0 mi NNW 4.6 mph - N/A   Clear
1:15 PM 78.1 °F - 56.5 °F 47% 30.15 in 7.0 mi Calm Calm - N/A   Clear
1:35 PM 78.6 °F - 55.0 °F 44% 30.15 in 10.0 mi NNE 5.8 mph - N/A   Clear
1:55 PM 79.5 °F - 55.6 °F 44% 30.14 in 10.0 mi Calm Calm - N/A   Clear
2:15 PM 79.3 °F - 52.5 °F 39% 30.14 in 10.0 mi East 3.5 mph - N/A   Clear
2:35 PM 79.9 °F - 52.0 °F 38% 30.14 in 10.0 mi NNW 3.5 mph - N/A   Clear
2:55 PM 81.0 °F 80.8 °F 56.1 °F 42% 30.13 in 10.0 mi Calm Calm - N/A   Clear
3:15 PM 80.2 °F 80.1 °F 53.6 °F 40% 30.13 in 10.0 mi East 4.6 mph - N/A   Clear
3:35 PM 81.3 °F 80.9 °F 54.7 °F 40% 30.12 in 10.0 mi ENE 4.6 mph - N/A   Clear
3:55 PM 80.6 °F - 52.7 °F 38% 30.12 in 10.0 mi Calm Calm - N/A   Clear
4:15 PM 81.1 °F 80.6 °F 53.1 °F 38% 30.11 in 10.0 mi North 4.6 mph - N/A   Clear
4:35 PM 81.3 °F - 52.7 °F 37% 30.11 in 10.0 mi Calm Calm - N/A   Clear
4:55 PM 81.7 °F - 52.5 °F 36% 30.11 in 10.0 mi NW 3.5 mph - N/A   Clear
5:15 PM 81.5 °F 80.8 °F 53.2 °F 38% 30.11 in 10.0 mi SSW 3.5 mph - N/A   Clear
5:35 PM 81.3 °F - 52.7 °F 37% 30.11 in 10.0 mi NNW 3.5 mph - N/A   Clear
5:55 PM 81.0 °F - 51.8 °F 36% 30.11 in 10.0 mi Calm Calm - N/A   Clear
6:15 PM 80.6 °F - 51.4 °F 36% 30.12 in 10.0 mi North 3.5 mph - N/A   Clear
6:35 PM 80.2 °F - 50.9 °F 36% 30.12 in 10.0 mi Calm Calm - N/A   Clear
6:55 PM 79.2 °F - 55.2 °F 44% 30.12 in 10.0 mi NNE 3.5 mph - N/A   Clear
7:15 PM 78.1 °F - 56.1 °F 47% 30.12 in 10.0 mi Calm Calm - N/A   Clear
7:35 PM 76.6 °F - 56.8 °F 50% 30.12 in 10.0 mi Calm Calm - N/A   Clear
7:55 PM 74.5 °F - 58.3 °F 57% 30.12 in 10.0 mi Calm Calm - N/A   Clear
8:15 PM 72.5 °F - 59.4 °F 63% 30.12 in 10.0 mi Calm Calm - N/A   Clear
8:35 PM 70.5 °F - 59.2 °F 67% 30.13 in 10.0 mi Calm Calm - N/A   Clear
8:55 PM 69.4 °F - 58.6 °F 68% 30.13 in 10.0 mi Calm Calm - N/A   Clear
9:15 PM 68.5 °F - 59.2 °F 72% 30.13 in 10.0 mi Calm Calm - N/A   Clear
9:35 PM 67.6 °F - 59.0 °F 74% 30.14 in 10.0 mi Calm Calm - N/A   Clear
9:55 PM 68.5 °F - 57.6 °F 68% 30.14 in 10.0 mi Calm Calm - N/A   Clear
10:15 PM 68.0 °F - 56.8 °F 67% 30.15 in 10.0 mi Calm Calm - N/A   Clear
10:35 PM 65.8 °F - 56.7 °F 72% 30.16 in 10.0 mi Calm Calm - N/A   Clear
10:55 PM 64.8 °F - 57.6 °F 77% 30.16 in 10.0 mi Calm Calm - N/A   Clear
11:15 PM 63.7 °F - 61.0 °F 91% 30.16 in 10.0 mi Calm Calm - N/A   Clear
11:35 PM 63.9 °F - 59.2 °F 85% 30.16 in 10.0 mi Calm Calm - N/A   Clear
11:55 PM 63.9 °F - 59.9 °F 87% 30.16 in 10.0 mi Calm Calm - N/A   Clear